Regional Weather Roundup
Issued by NWS Bismarck, ND

Home | Current Version | Previous Version | Text Only | Print | Product List | Glossary On
Versions: 1 2 3 4 5 6 7 8 9 10 11 12 13 14 15 16 17 18 19 20 21 22 23 24 25 26 27 28 29 30 31 32 33 34 35 36 37 38 39 40 41 42 43 44 45 46 47 48 49 50
000
ASUS43 KBIS 230759
RWRBIS

NWR BROADCAST TEXT
NATIONAL WEATHER SERVICE BISMARCK ND
300 AM CDT WED JUL 23 2014

NOTE: "FAIR" INDICATES FEW OR NO CLOUDS BELOW 12,000 FEET WITH NO
SIGNIFICANT WEATHER AND/OR OBSTRUCTIONS TO VISIBILITY.


CITY           SKY/WX    TMP DP  RH WIND       PRES   REMARKS
WILLISTON      PTCLDY    68  62  81 SE3       30.23F
MINOT          LGT RAIN  64  62  93 E3        30.26R
MINOT AFB      NOT AVBL
BISMARCK       MOCLDY    65  62  90 NE5       30.25S
DICKINSON      MOCLDY    62  60  93 SE7       30.24S
GARRISON         N/A     67  65  93 NW5       30.26R
HETTINGER ARPT PTCLDY    62  59  90 E8        30.24F
JAMESTOWN      CLEAR     61  57  87 S5        30.27S
CARRINGTON     FAIR      63  63 100 SE6       30.28F
CROSBY         CLOUDY    63  63 100 NE6       30.27S
HARVEY         FAIR      59  59 100 SE6       30.26F
HAZEN          PTSUNNY   64  61  88 CALM      30.25R
MANDAN         FAIR      64  61  88 SE7       30.26F
RUGBY          FAIR      63  63 100 E9        30.27S
TIOGA          FAIR      63  63 100 E8        30.29S
WATFORD CITY   FAIR      64  63  94 E6        30.22F
$$

CITY           SKY/WX    TMP DP  RH WIND       PRES   REMARKS
GRAND FORKS    CLEAR     58  56  93 NW3       30.26S
GRAND FORKS AF NOT AVBL
DEVILS LAKE    PTCLDY    63  57  82 E3        30.27S
FARGO          PTCLDY    60  57  89 N3        30.25F
CAVALIER       FAIR      57  55  94 NW5       30.30R
GRAFTON        FAIR      57  57 100 N7        30.28R
GWINNER        SUNNY     61  61 100 CALM      30.28R
LANGDON        CLOUDY    57  54  88 NE5       30.31R
$$

CITY           SKY/WX    TMP DP  RH WIND       PRES   REMARKS
ABERDEEN       CLEAR     59  58  96 E8        30.25S
MOBRIDGE       MOCLDY    65  61  87 E8        30.24R
BUFFALO          N/A     63  59  87 E7        30.17S
RAPID CITY     TSTM      60  57  89 S33G40    30.27F FOG
GLASGOW        CLEAR     66  57  72 E12       30.20F
SIDNEY         CLEAR     63  57  82 N3        30.24F
WOLF POINT     CLEAR     62  56  80 E7        30.22S
GLENDIVE       CLEAR     64  61  88 NE5       30.24S
MILES CITY     CLEAR     67  61  81 E5        30.20F
BAKER          CLEAR     62  59  90 SE7       30.23S
$$

CITY           SKY/WX    TMP DP  RH WIND       PRES   REMARKS
BILLINGS       CLEAR     63  57  81 NW8       30.23S
GREAT FALLS    PTCLDY    62  56  80 E3        30.16R
$$




USA.gov is the U.S. government's official web portal to all federal, state and local government web resources and services.